Regional Weather Roundup
Issued by NWS

Home | Current Version | Previous Version | Text Only | Print | Product List | Glossary On
Versions: 1 2 3 4 5 6 7 8 9 10 11 12 13 14 15 16 17 18 19 20 21 22 23 24 25 26 27 28 29 30 31 32 33 34 35 36 37 38 39 40 41 42 43 44 45 46 47 48 49 50
000
ASUS43 KLSX 291807
RWRMO

WEATHER SUMMARY FOR MISSOURI
NATIONAL WEATHER SERVICE SPRINGFIELD MO
1200 PM CST THU JAN 29 2015

NOTE: "FAIR" INDICATES FEW OR NO CLOUDS BELOW 12,000 FEET WITH NO
       SIGNIFICANT WEATHER AND/OR OBSTRUCTIONS TO VISIBILITY.
       CURRENT SKY AND/OR WEATHER CONDITIONS ARE NOT AVAILABLE FOR
       CHILLICOTHE AND FARMINGTON.

MOZ001>031-035>038-043-044-053-054-291900-
...NORTHERN AND WESTERN MISSOURI...

CITY           SKY/WX    TMP DP  RH WIND       PRES   REMARKS
KANSAS CTY INT CLOUDY    40  27  59 N21G26    30.35R
6HR MIN TEMP:  37; 6HR MAX TEMP:  41;

KANSAS C DTWN  CLOUDY    42  26  53 NW17G28   30.35R
6HR MIN TEMP:  39; 6HR MAX TEMP:  42; 6HR PCP: TRACE;

LEE`S SUMMIT   CLOUDY    41  27  57 N17       30.34R
6HR MIN TEMP:  37; 6HR MAX TEMP:  41;

ST JOSEPH      CLOUDY    40  27  59 NW25G31   30.37  WCI  29
6HR MIN TEMP:  37; 6HR MAX TEMP:  40;

CHILLICOTHE      N/A     40  30  67 NW9G18    30.30R
6HR MIN TEMP:  38; 6HR MAX TEMP:  40;

KIRKSVILLE     CLOUDY    37  30  75 NW18G25   30.23R WCI  27
6HR MIN TEMP:  36; 6HR MAX TEMP:  37; 6HR PCP: TRACE;


$$
MOZ066>068-077>081-088>096-101>105-291900-
...SOUTHWEST MISSOURI...

CITY           SKY/WX    TMP DP  RH WIND       PRES   REMARKS
SPRINGFIELD    CLOUDY    39  30  70 NW18      30.30R WCI  30
6HR MIN TEMP:  39; 6HR MAX TEMP:  46;

JOPLIN         CLOUDY    40  29  64 N20G28    30.38R
6HR MIN TEMP:  40; 6HR MAX TEMP:  47;


$$
MOZ032>034-039>042-045>050-055>058-069>072-291900-
...CENTRAL MISSOURI...

CITY           SKY/WX    TMP DP  RH WIND       PRES   REMARKS
COLUMBIA       CLOUDY    40  28  62 NW18      30.23S
6HR MIN TEMP:  39; 6HR MAX TEMP:  41;

JEFFERSON CITY CLOUDY    41  27  57 NW17G28   30.25R
6HR MIN TEMP:  40; 6HR MAX TEMP:  43;

ROLLA          CLOUDY    38  28  67 NW21G28   30.20R WCI  28
6HR MIN TEMP:  38; 6HR MAX TEMP:  44;

SEDALIA        CLOUDY    41  29  62 NW20G25   30.29S
6HR MIN TEMP:  39; 6HR MAX TEMP:  43;

WHITEMAN AFB   CLOUDY    40  28  61 NW14G24   30.31R
WARRENSBURG    CLOUDY    39  28  65 NW18G28   30.33R WCI  30
OSAGE BEACH    CLOUDY    39  27  60 NW8G17    30.27R

$$
MOZ051-052-059>065-291900-
...EAST CENTRAL MISSOURI...

CITY           SKY/WX    TMP DP  RH WIND       PRES   REMARKS
ST LOUIS INTL  CLOUDY    42  30  62 NW14G25   30.15R
6HR MIN TEMP:  40; 6HR MAX TEMP:  46;

SPIRIT OF STL  CLOUDY    42  29  59 NW17G26   30.17R
6HR MIN TEMP:  40; 6HR MAX TEMP:  46;

ST CHARLES     CLOUDY    41  31  67 NW17G25   30.15R
6HR MIN TEMP:  39; 6HR MAX TEMP:  45;


$$
MOZ072>076-082>087-097>100-106>115-291900-
...SOUTH CENTRAL AND SOUTHEAST MISSOURI...

CITY           SKY/WX    TMP DP  RH WIND       PRES   REMARKS
CAPE GIRARDEAU CLOUDY    45  35  68 NW16      30.15R
6HR MIN TEMP:  45; 6HR MAX TEMP:  51;

FARMINGTON     CLOUDY    39  28  65 NW14G21   30.20R
6HR MIN TEMP:  39; 6HR MAX TEMP:  52;

POPLAR BLUFF   CLOUDY    49  36  61 NW14G25   30.14R
6HR MIN TEMP:  47; 6HR MAX TEMP:  54;

WEST PLAINS    CLOUDY    41  32  70 NW14G24   30.22R
6HR MIN TEMP:  41; 6HR MAX TEMP:  50;


$$


USA.gov is the U.S. government's official web portal to all federal, state and local government web resources and services.